User: anonymous   Login
Location: Kitchener
(43.4500°N, 80.5000°W)
Time: 10:49:38
(UTC-04:00)
Language:

Cosmos 1939 Rocket - Orbit

View from above orbital plane
View from above orbital plane
View from above satellite
View from above satellite

Ground track
Ground track

The orbit data is extracted from the following two-line orbital elements,

1 19046U 88032B   15244.68835071  .00001146  00000-0  91822-4 0  9993
2 19046  97.6308 295.8557 0043085  43.8915 316.5719 15.01410842474403
Epoch (UTC): 01 September 2015 16:31:13
Eccentricity: 0.0043085
inclination: 97.6308°
perigee height: 532 km
apogee height: 592 km
right ascension of ascending node: 295.8557°
argument of perigee: 43.8915°
revolutions per day: 15.01410842
mean anomaly at epoch: 316.5719°
orbit number at epoch: 47440

The dashed part of the orbit path shows where the satellite is in the earth's shadow,  

DLR